Terminal Aerodrome Forecast
Issued by NWS

Home | Current Version | Previous Version | Text Only | Print | Product List | Glossary On
Versions: 1 2 3 4 5 6 7 8 9 10 11 12 13 14 15 16 17 18 19 20 21 22 23 24 25 26 27 28 29 30 31 32 33 34 35
000
FTUS44 KHGX 280055 AAA
TAFLBX
TAF AMD
KLBX 280055Z 2801/2824 04011KT P6SM SCT025 BKN100
     FM280200 05013KT P6SM BKN035 OVC080
     FM280900 06016KT P6SM BKN020 OVC070
     FM281600 06016KT P6SM SCT025 BKN045 OVC070=

USA.gov is the U.S. government's official web portal to all federal, state and local government web resources and services.